Hourly Weather Holubytsya

Today, 11 April, Sunday

Time Temperature Precipitation Wind Pressure Humidity
00:00 +5°C° 0 mm 3 mps 735 mmHg 71%
01:00 +4°C° 0 mm 3 mps 735 mmHg 71%
02:00 +4°C° 0 mm 3 mps 735 mmHg 72%
03:00 +4°C° 0 mm 3 mps 735 mmHg 71%
04:00 +3°C° 0 mm 3 mps 735 mmHg 70%
05:00 +3°C° 0 mm 3 mps 735 mmHg 69%
06:00 +4°C° 0 mm 3 mps 735 mmHg 66%
07:00 +5°C° 0 mm 4 mps 736 mmHg 63%
08:00 +7°C° 0 mm 4 mps 736 mmHg 61%
09:00 +8°C° 0 mm 5 mps 736 mmHg 57%
10:00 +10°C° 0 mm 6 mps 736 mmHg 52%
11:00 +11°C° 0 mm 6 mps 736 mmHg 48%
12:00 +13°C° 0 mm 6 mps 736 mmHg 46%
13:00 +14°C° 0 mm 6 mps 736 mmHg 44%
14:00 +14°C° 0 mm 6 mps 736 mmHg 42%
15:00 +14°C° 0 mm 6 mps 735 mmHg 43%
16:00 +14°C° 0 mm 6 mps 735 mmHg 44%
17:00 +13°C° 0 mm 6 mps 735 mmHg 45%
18:00 +12°C° 0 mm 5 mps 735 mmHg 47%
19:00 +9°C° 0 mm 5 mps 735 mmHg 50%
20:00 +8°C° 0 mm 5 mps 735 mmHg 53%
21:00 +7°C° 0 mm 5 mps 736 mmHg 53%
22:00 +7°C° 0 mm 5 mps 736 mmHg 54%
23:00 +6°C° 0 mm 5 mps 736 mmHg 55%

Tomorrow, 12 April, Monday

Time Temperature Precipitation Wind Pressure Humidity
00:00 +6°C° 0 mm 5 mps 735 mmHg 55%
01:00 +5°C° 0 mm 5 mps 735 mmHg 56%
02:00 +5°C° 0 mm 4 mps 735 mmHg 57%
03:00 +5°C° 0 mm 4 mps 735 mmHg 58%
04:00 +4°C° 0 mm 4 mps 735 mmHg 59%
05:00 +4°C° 0 mm 4 mps 735 mmHg 60%
06:00 +5°C° 0 mm 4 mps 735 mmHg 59%
07:00 +5°C° 0 mm 4 mps 735 mmHg 59%
08:00 +6°C° 0 mm 4 mps 735 mmHg 58%
09:00 +8°C° 0 mm 4 mps 735 mmHg 55%
10:00 +10°C° 0 mm 4 mps 735 mmHg 53%
11:00 +12°C° 0 mm 4 mps 735 mmHg 50%
12:00 +13°C° 0 mm 4 mps 734 mmHg 48%
13:00 +14°C° 0 mm 4 mps 734 mmHg 46%
14:00 +15°C° 0 mm 4 mps 734 mmHg 44%
15:00 +16°C° 0 mm 3 mps 734 mmHg 46%
16:00 +16°C° 0 mm 3 mps 733 mmHg 47%
17:00 +16°C° 0 mm 3 mps 733 mmHg 48%
18:00 +14°C° 0 mm 3 mps 733 mmHg 53%
19:00 +12°C° 0 mm 3 mps 733 mmHg 58%
20:00 +10°C° 0 mm 3 mps 733 mmHg 63%
21:00 +10°C° 0 mm 3 mps 733 mmHg 62%
22:00 +9°C° 0 mm 2 mps 733 mmHg 61%
23:00 +9°C° 0 mm 2 mps 733 mmHg 61%

Day after tomorrow, 13 April, Tuesday

Time Temperature Precipitation Wind Pressure Humidity
00:00 +9°C° 0 mm 2 mps 733 mmHg 60%
01:00 +9°C° 0 mm 2 mps 733 mmHg 60%
02:00 +10°C° 0 mm 1 mps 733 mmHg 60%
03:00 +9°C° 0 mm 1 mps 732 mmHg 60%
04:00 +8°C° 0 mm 1 mps 732 mmHg 61%
05:00 +8°C° 0 mm 1 mps 732 mmHg 62%
06:00 +9°C° 0 mm 1 mps 732 mmHg 59%
07:00 +10°C° 0 mm 1 mps 732 mmHg 57%
08:00 +11°C° 0 mm 1 mps 733 mmHg 55%
09:00 +13°C° 0 mm 1 mps 732 mmHg 51%
10:00 +14°C° 0 mm 1 mps 732 mmHg 47%
11:00 +16°C° 0 mm 1 mps 732 mmHg 44%
12:00 +16°C° 0 mm 2 mps 732 mmHg 44%
13:00 +17°C° 0 mm 2 mps 732 mmHg 43%
14:00 +17°C° 0 mm 2 mps 731 mmHg 43%
15:00 +17°C° 0 mm 3 mps 731 mmHg 46%
16:00 +17°C° 0 mm 3 mps 731 mmHg 48%
17:00 +16°C° 0 mm 3 mps 730 mmHg 51%
18:00 +14°C° 0 mm 3 mps 730 mmHg 57%
19:00 +13°C° 0 mm 4 mps 730 mmHg 64%
20:00 +12°C° 0 mm 4 mps 730 mmHg 70%
21:00 +11°C° 0 mm 3 mps 730 mmHg 74%
22:00 +10°C° 0 mm 3 mps 730 mmHg 78%
23:00 +9°C° 0 mm 3 mps 729 mmHg 82%

14 April, Wednesday

Time Temperature Precipitation Wind Pressure Humidity
00:00 +9°C° 0 mm 2 mps 729 mmHg 84%
01:00 +8°C° 0 mm 2 mps 729 mmHg 86%
02:00 +8°C° 0 mm 2 mps 729 mmHg 89%
03:00 +7°C° 0 mm 2 mps 729 mmHg 90%
04:00 +7°C° 0 mm 2 mps 728 mmHg 92%
05:00 +8°C° 0 mm 1 mps 728 mmHg 93%
06:00 +7°C° 0.4 mm 2 mps 728 mmHg 93%
07:00 +7°C° 0.4 mm 2 mps 728 mmHg 94%
08:00 +7°C° 0.4 mm 3 mps 728 mmHg 94%
09:00 +5°C° 0.7 mm 3 mps 728 mmHg 94%
10:00 +5°C° 0.7 mm 3 mps 728 mmHg 94%
11:00 +5°C° 0.7 mm 4 mps 728 mmHg 94%
12:00 +4°C° 0.7 mm 4 mps 728 mmHg 94%
13:00 +4°C° 0.7 mm 4 mps 728 mmHg 94%
14:00 +4°C° 0.7 mm 4 mps 728 mmHg 94%
15:00 +4°C° 0.6 mm 4 mps 728 mmHg 94%
16:00 +3°C° 0.6 mm 4 mps 728 mmHg 94%
17:00 +3°C° 0.6 mm 4 mps 728 mmHg 94%
18:00 +3°C° 0.4 mm 4 mps 728 mmHg 94%
19:00 +3°C° 0.4 mm 4 mps 728 mmHg 95%
20:00 +1°C° 0.4 mm 4 mps 729 mmHg 95%
21:00 +1°C° 0.2 mm 4 mps 729 mmHg 95%
22:00 +2°C° 0.2 mm 3 mps 729 mmHg 96%
23:00 +2°C° 0.2 mm 3 mps 729 mmHg 96%

15 April, Thursday

Time Temperature Precipitation Wind Pressure Humidity
00:00 +2°C° 0.1 mm 3 mps 729 mmHg 96%
01:00 +2°C° 0.1 mm 3 mps 729 mmHg 96%
02:00 +1°C° 0.1 mm 3 mps 728 mmHg 96%
03:00 +2°C° 0.1 mm 2 mps 729 mmHg 96%
04:00 +2°C° 0.1 mm 2 mps 729 mmHg 97%
05:00 +2°C° 0.1 mm 2 mps 729 mmHg 97%
06:00 +2°C° 0 mm 2 mps 729 mmHg 97%
07:00 +3°C° 0 mm 2 mps 729 mmHg 96%
08:00 +3°C° 0 mm 2 mps 729 mmHg 96%
09:00 +3°C° 0.1 mm 2 mps 729 mmHg 95%
10:00 +4°C° 0.1 mm 2 mps 730 mmHg 94%
11:00 +4°C° 0.1 mm 2 mps 730 mmHg 93%
12:00 +4°C° 0.1 mm 2 mps 730 mmHg 92%
13:00 +5°C° 0.1 mm 2 mps 730 mmHg 92%
14:00 +4°C° 0.1 mm 3 mps 730 mmHg 91%
15:00 +4°C° 0.5 mm 3 mps 730 mmHg 93%
16:00 +3°C° 0.5 mm 3 mps 730 mmHg 94%
17:00 +3°C° 0.5 mm 3 mps 730 mmHg 95%
18:00 +3°C° 0.4 mm 3 mps 730 mmHg 96%
19:00 +3°C° 0.4 mm 3 mps 730 mmHg 96%
20:00 +3°C° 0.4 mm 3 mps 730 mmHg 97%
21:00 +3°C° 0.1 mm 3 mps 730 mmHg 97%
22:00 +3°C° 0.1 mm 3 mps 730 mmHg 97%
23:00 +4°C° 0.1 mm 2 mps 730 mmHg 97%

16 April, Friday

Time Temperature Precipitation Wind Pressure Humidity
00:00 +3°C° 0 mm 3 mps 730 mmHg 97%
01:00 +3°C° 0 mm 3 mps 730 mmHg 97%
02:00 +3°C° 0 mm 3 mps 730 mmHg 97%
03:00 +3°C° 0 mm 3 mps 730 mmHg 97%
04:00 +3°C° 0 mm 3 mps 730 mmHg 97%
05:00 +3°C° 0 mm 4 mps 730 mmHg 96%
06:00 +3°C° 0 mm 4 mps 730 mmHg 96%
07:00 +3°C° 0 mm 4 mps 731 mmHg 95%
08:00 +2°C° 0 mm 5 mps 731 mmHg 95%
09:00 +3°C° 0 mm 5 mps 731 mmHg 91%
10:00 +5°C° 0 mm 5 mps 731 mmHg 88%
11:00 +4°C° 0 mm 6 mps 732 mmHg 85%
12:00 +5°C° 0 mm 6 mps 732 mmHg 82%
13:00 +7°C° 0 mm 6 mps 732 mmHg 79%
14:00 +8°C° 0 mm 6 mps 732 mmHg 77%
15:00 +7°C° 0.2 mm 6 mps 732 mmHg 81%
16:00 +7°C° 0.2 mm 6 mps 732 mmHg 85%
17:00 +5°C° 0.2 mm 6 mps 732 mmHg 90%
18:00 +5°C° 0.1 mm 6 mps 733 mmHg 92%
19:00 +6°C° 0.1 mm 5 mps 733 mmHg 93%
20:00 +5°C° 0.1 mm 5 mps 733 mmHg 95%
21:00 +6°C° 0.2 mm 5 mps 733 mmHg 96%
22:00 +6°C° 0.2 mm 5 mps 733 mmHg 96%
23:00 +6°C° 0.2 mm 5 mps 734 mmHg 97%
Show more